Indianapolis, IN

12:51 AM EST on November 19, 2019 (GMT -0500)
Indianapolis International

Weather History for KIND - May, 2019

Change the Weather History Date:

Friday, May 17, 2019

  Actual Average Record
Temperature  
Mean Temperature 73 °F 63 °F  
Max Temperature 83 °F 73 °F 90 °F (1962)
Min Temperature 62 °F 53 °F 36 °F (1973)
Degree Days  
Heating Degree Days 0 4  
Month to date heating degree days 104 99  
Since 1 July heating degree days 5355 5321  
Cooling Degree Days 8 2  
Month to date cooling degree days 12 24  
Year to date cooling degree days 13 39  
Growing Degree Days 22 (Base 50)    
Moisture  
Dew Point 64 °F    
Average Humidity 78    
Maximum Humidity 100    
Minimum Humidity 55    
Precipitation  
Precipitation 0.16 in 0.17 in 2.30 in (1943)
Month to date precipitation 2.17 2.78  
Year to date precipitation 19.65 15.13  
Snow  
Snow 0.00 in 0.00 in 0.00 in ()
Month to date snowfall 0.0 0.0  
Since 1 July snowfall 19.4 25.9  
Snow Depth 0.00 in    
Sea Level Pressure  
Sea Level Pressure 29.84 in    
Wind  
Wind Speed 7 mph (WSW)    
Max Wind Speed 17 mph    
Max Gust Speed 23 mph    
Visibility 10 miles    
Events Rain , Thunderstorm    
T = Trace of Precipitation, MM = Missing Value Source: NWS Daily Summary

Daily Weather History Graph

Daily Weather History Graph

Search for Another Location

Airport or City:

Astronomy

May. 17, 2019 Rise Set
Actual Time 6:29 AM EDT 8:54 PM EDT
Civil Twilight 5:58 AM EDT 9:25 PM EDT
Nautical Twilight 5:20 AM EDT 10:03 PM EDT
Astronomical Twilight 4:38 AM EDT 10:45 PM EDT
Moon 7:42 PM EDT (5/17) 5:59 AM EDT (5/17)
Length of Visible Light 15h 26m
Length of Day
14h 25m
Waxing Gibbous, 98% of the Moon is Illuminated
May 17
Waxing Gibbous
May 18
Full
May 26
Last Quarter
Jun 3
New
Jun 10
First Quarter

Hourly Weather History & Observations

Time (EDT) Temp. Heat Index Dew Point Humidity Pressure Visibility Wind Dir Wind Speed Gust Speed Precip Events Conditions
12:54 AM 62.1 °F - 60.1 °F 93% 29.76 in 10.0 mi South 9.2 mph - N/A   Scattered Clouds
1:54 AM 63.0 °F - 61.0 °F 93% 29.75 in 10.0 mi South 11.5 mph - N/A   Mostly Cloudy
2:54 AM 64.9 °F - 63.0 °F 93% 29.76 in 10.0 mi SSW 3.5 mph - N/A   Mostly Cloudy
4:54 AM 64.9 °F - 63.0 °F 93% 29.78 in 10.0 mi SW 5.8 mph - N/A   Mostly Cloudy
5:54 AM 66.9 °F - 64.0 °F 90% 29.80 in 10.0 mi WSW 8.1 mph - N/A   Mostly Cloudy
6:54 AM 66.0 °F - 63.0 °F 90% 29.81 in 10.0 mi SW 6.9 mph - N/A   Mostly Cloudy
7:54 AM 66.9 °F - 63.0 °F 87% 29.83 in 10.0 mi WSW 9.2 mph - N/A   Mostly Cloudy
8:54 AM 69.1 °F - 64.0 °F 84% 29.83 in 10.0 mi WSW 8.1 mph - N/A   Mostly Cloudy
9:54 AM 72.0 °F - 64.0 °F 76% 29.84 in 10.0 mi WSW 8.1 mph - N/A   Mostly Cloudy
10:54 AM 75.0 °F - 64.0 °F 69% 29.86 in 10.0 mi WSW 10.4 mph - N/A   Scattered Clouds
11:54 AM 78.1 °F - 63.0 °F 60% 29.85 in 10.0 mi West 6.9 mph - N/A   Mostly Cloudy
12:54 PM 81.0 °F 82.5 °F 64.0 °F 56% 29.86 in 10.0 mi West 13.8 mph 21.9 mph N/A   Mostly Cloudy
1:54 PM 81.0 °F 82.7 °F 64.9 °F 58% 29.87 in 10.0 mi NNW 10.4 mph - N/A   Mostly Cloudy
2:26 PM 79.0 °F - 63.0 °F 58% 29.88 in 10.0 mi NNW 11.5 mph - N/A Thunderstorm Thunderstorm
2:38 PM 73.9 °F - 66.0 °F 76% 29.90 in 1.0 mi NW 9.2 mph - 0.02 in Rain , Thunderstorm Heavy Thunderstorms and Rain
2:50 PM 71.6 °F - 66.2 °F 83% 29.89 in 9.0 mi SW 5.8 mph - 0.16 in Rain , Thunderstorm Light Thunderstorms and Rain
2:54 PM 73.0 °F - 66.0 °F 79% 29.88 in 9.0 mi Calm Calm - 0.16 in Rain , Thunderstorm Light Thunderstorms and Rain
3:22 PM 78.1 °F - 66.0 °F 66% 29.89 in 10.0 mi NNE 8.1 mph - 0.00 in   Mostly Cloudy
3:54 PM 79.0 °F - 64.0 °F 60% 29.87 in 10.0 mi NNW 6.9 mph - 0.00 in   Mostly Cloudy
4:54 PM 82.0 °F 83.8 °F 64.9 °F 56% 29.85 in 10.0 mi West 5.8 mph - N/A   Mostly Cloudy
5:54 PM 81.0 °F 82.5 °F 64.0 °F 56% 29.84 in 10.0 mi Calm Calm - N/A   Mostly Cloudy
6:54 PM 78.1 °F - 66.9 °F 68% 29.83 in 10.0 mi SSW 6.9 mph - N/A   Mostly Cloudy
7:54 PM 78.1 °F - 66.9 °F 68% 29.84 in 10.0 mi SE 3.5 mph - N/A   Mostly Cloudy
8:54 PM 75.9 °F - 66.0 °F 71% 29.85 in 10.0 mi NNE 6.9 mph - N/A   Mostly Cloudy
9:54 PM 73.9 °F - 64.9 °F 73% 29.85 in 10.0 mi East 6.9 mph - N/A   Mostly Cloudy
10:54 PM 73.0 °F - 64.0 °F 73% 29.86 in 10.0 mi East 6.9 mph - N/A   Scattered Clouds
11:54 PM 70.0 °F - 64.0 °F 81% 29.87 in 10.0 mi ESE 8.1 mph - N/A   Scattered Clouds